Weather History for Detroit, MI

Change the Weather History Date:

Sunday, December 22, 2013

  Actual Average Record
Temperature  
Mean Temperature 36 °F -  
Max Temperature 39 °F 35 °F 55 °F (1949)
Min Temperature 34 °F 22 °F - (1998)
Degree Days  
Heating Degree Days 28    
Moisture  
Dew Point 32 °F    
Average Humidity 84    
Maximum Humidity 93    
Minimum Humidity 75    
Precipitation  
Precipitation 0.15 in - - ()
Sea Level Pressure  
Sea Level Pressure 29.74 in    
Wind  
Wind Speed 9 mph (West)    
Max Wind Speed 23 mph    
Max Gust Speed 33 mph    
Visibility 7 miles    
Events Rain    
Averages and records for this station are not official NWS values.
T = Trace of Precipitation, MM = Missing Value Source: NWS Daily Summary

Daily Weather History Graph

Daily Weather History Graph

Search for Another Location

Airport:

Trip Planner

Search our weather history database for the weather conditions in past years. The results will help you decide how hot, cold, wet, or windy it might be!

Date:

Astronomy

Dec. 22, 2013 Rise Set
Actual Time 7:58 AM EST 5:02 PM EST
Civil Twilight 7:26 AM EST 5:35 PM EST
Nautical Twilight 6:51 AM EST 6:10 PM EST
Astronomical Twilight 6:16 AM EST 6:44 PM EST
Moon 10:20 PM EST (12/22) 10:49 AM EST (12/22)
Length of Visible Light 10h 08m
Length of Day
9h 04m
Waning Gibbous, 77% of the Moon is Illuminated
Dec 22
Waning Gibbous
Dec 25
Last Quarter
Jan 1
New
Jan 7
First Quarter
Jan 15
Full

Hourly Weather History & Observations

Time (EST) Temp. Windchill Dew Point Humidity Pressure Visibility Wind Dir Wind Speed Gust Speed Precip Events Conditions
12:53 AM 34.0 °F 26.0 °F 30.9 °F 89% 29.64 in 7.0 mi NE 10.4 mph 20.7 mph 0.04 in Rain Light Rain
1:53 AM 35.1 °F 26.9 °F 30.9 °F 85% 29.59 in 7.0 mi ENE 11.5 mph - 0.02 in Rain Light Rain
2:53 AM 35.1 °F 27.9 °F 32.0 °F 89% 29.56 in 8.0 mi NE 9.2 mph - 0.00 in Rain Light Rain
3:53 AM 35.1 °F 27.9 °F 32.0 °F 89% 29.61 in 3.0 mi NE 9.2 mph - 0.01 in   Overcast
4:08 AM 35.6 °F 27.5 °F 32.0 °F 87% 29.57 in 3.0 mi ENE 11.5 mph - 0.00 in   Overcast
4:44 AM 35.6 °F 28.6 °F 32.0 °F 87% 29.58 in 2.5 mi NE 9.2 mph - 0.01 in Rain Light Rain
4:53 AM 35.1 °F 28.6 °F 32.0 °F 89% 29.59 in 3.0 mi NE 8.1 mph - 0.02 in Rain Light Rain
5:53 AM 35.1 °F 27.9 °F 32.0 °F 89% 29.58 in 4.0 mi NE 9.2 mph - 0.03 in Rain Light Rain
6:53 AM 35.1 °F 27.9 °F 32.0 °F 89% 29.58 in 5.0 mi NNE 9.2 mph - 0.02 in Rain Light Rain
7:28 AM 35.6 °F 30.7 °F 32.0 °F 87% 29.57 in 4.0 mi NE 5.8 mph - 0.00 in Rain Light Rain
7:53 AM 35.1 °F 31.0 °F 32.0 °F 89% 29.60 in 3.0 mi ENE 4.6 mph - 0.00 in   Overcast
8:53 AM 35.1 °F - 32.0 °F 89% 29.63 in 4.0 mi Calm Calm - 0.01 in   Overcast
9:27 AM 35.6 °F - 32.0 °F 87% 29.63 in 2.0 mi Calm Calm - N/A   Overcast
9:43 AM 35.6 °F - 33.8 °F 93% 29.63 in 4.0 mi Calm Calm - N/A   Overcast
9:53 AM 35.1 °F - 33.1 °F 92% 29.65 in 6.0 mi Calm Calm - N/A   Overcast
10:51 AM 35.6 °F 31.7 °F 33.8 °F 93% 29.66 in 5.0 mi SW 4.6 mph - N/A   Overcast
10:53 AM 36.0 °F 33.3 °F 33.1 °F 89% 29.68 in 5.0 mi SW 3.5 mph - N/A   Overcast
11:53 AM 37.9 °F 29.2 °F 35.1 °F 89% 29.68 in 9.0 mi WSW 15.0 mph 23.0 mph N/A   Overcast
12:36 PM 39.2 °F 29.6 °F 33.8 °F 81% 29.66 in 10.0 mi WSW 19.6 mph 28.8 mph N/A   Overcast
12:53 PM 39.9 °F 29.7 °F 34.0 °F 79% 29.69 in 10.0 mi WSW 23.0 mph 33.4 mph N/A   Overcast
1:53 PM 39.9 °F 30.0 °F 34.0 °F 79% 29.73 in 10.0 mi WSW 21.9 mph 28.8 mph N/A   Overcast
2:53 PM 39.9 °F 31.8 °F 33.1 °F 77% 29.76 in 10.0 mi West 15.0 mph 23.0 mph N/A   Overcast
3:25 PM 39.2 °F 30.5 °F 33.8 °F 81% 29.77 in 10.0 mi West 16.1 mph 23.0 mph N/A   Overcast
3:53 PM 39.9 °F 32.1 °F 33.1 °F 77% 29.81 in 10.0 mi West 13.8 mph 23.0 mph 0.00 in Rain Light Rain
4:53 PM 39.9 °F 33.9 °F 33.1 °F 77% 29.85 in 10.0 mi West 9.2 mph - 0.00 in   Overcast
5:39 PM 39.2 °F 33.0 °F 32.0 °F 75% 29.87 in 10.0 mi WSW 9.2 mph - N/A   Overcast
5:53 PM 39.0 °F 32.8 °F 32.0 °F 76% 29.89 in 10.0 mi WSW 9.2 mph - N/A   Overcast
6:53 PM 39.0 °F 34.0 °F 32.0 °F 76% 29.90 in 10.0 mi West 6.9 mph - N/A   Overcast
7:53 PM 39.0 °F 34.0 °F 32.0 °F 76% 29.92 in 10.0 mi WSW 6.9 mph - N/A   Overcast
8:53 PM 37.9 °F 33.5 °F 32.0 °F 79% 29.94 in 10.0 mi WSW 5.8 mph - N/A   Overcast
9:53 PM 37.9 °F 32.1 °F 32.0 °F 79% 29.94 in 10.0 mi WSW 8.1 mph - N/A   Overcast
10:25 PM 37.4 °F 32.1 °F 32.0 °F 81% 29.93 in 10.0 mi SW 6.9 mph - N/A   Overcast
10:53 PM 37.0 °F 31.0 °F 32.0 °F 82% 29.96 in 10.0 mi SW 8.1 mph - N/A   Overcast
11:00 PM 37.4 °F 31.4 °F 32.0 °F 81% 29.94 in 10.0 mi WSW 8.1 mph - N/A   Overcast
11:12 PM 37.4 °F 32.1 °F 32.0 °F 81% 29.94 in 10.0 mi WSW 6.9 mph - N/A   Overcast
11:19 PM 37.4 °F 32.1 °F 32.0 °F 81% 29.93 in 10.0 mi WSW 6.9 mph - N/A   Overcast
11:53 PM 37.0 °F 31.6 °F 32.0 °F 82% 29.97 in 10.0 mi WSW 6.9 mph - N/A   Overcast